STARLINK-34730 (64938 NORAD) Tracking and Keplerian Element Data

This shows tracking and keplerian element data for the satellite.

Feedback or suggestion? Click here.




ElementValue
Catalog64938
NameSTARLINK-34730
Epoch Orbit2339
Epoch Day354.15639632
Epoch Year2025
RAAN215.7672
Inclination97.6026
Eccentricity0.0002385
Argument of Perigee86.7916
Mean Anonmoly273.3583
Mean Motion15.05654093
Decay Rate3.908E-05
L11 64938U 25158G 25354.15639632 .00003908 00000+0 27488-3 0 9996
L22 64938 97.6026 215.7672 0002385 86.7916 273.3583 15.05654093 23393



Live tracking and technical data element details for STARLINK-34730 (NORAD 64938). STARLINK-34730 can be tracked NOW for your location showing map with azimuth and elevation plus other details from your city location.







IsCatalogInMostPopularTable: catalog: 64938, numindb: 10
Update: records affected: 1



GetName: 64938 STARLINK-34730

Hit Count: updated at: Tue, 21 Apr 2026 20:25:01 GMT